This demonstration page uses our WeatherBlox Daily Observations layout. Learn more.

Left ArrowRight Arrow

Hourly Observations for August 16, 2017

Temp ( °F °C ) Dew Point ( °F °C ) Humidity (%) Winds ( mph kmh ) Pressure ( in mb ) Visibility ( mi km ) Precip ( " mm )
12:15 am 00:15 Mostly Cloudy 67 19.7 66 19.1 96 96 Calm 30.00 1016 7 11 0.00 0.00
12:35 am 00:35 Partly Cloudy 68 19.9 67 19.2 96 96 Calm 30.00 1016 7 11 0.00 0.00
12:55 am 00:55 Clear 68 19.8 66 19.1 96 96 Calm 30.00 1016 7 11 0.00 0.00
1:15 am 01:15 Clear 66 19 65 18.5 97 97 Calm 30.00 1016 7 11 0.00 0.00
1:35 am 01:35 Clear 66 18.8 65 18.3 97 97 Calm 30.00 1016 7 11 0.00 0.00
1:55 am 01:55 Mostly Cloudy 66 19.1 65 18.6 97 97 Calm 30.00 1016 7 11 0.00 0.00
2:15 am 02:15 Cloudy 67 19.5 66 19 97 97 Calm 30.00 1016 7 11 0.00 0.00
2:35 am 02:35 Mostly Cloudy 68 19.8 66 19 95 95 Calm 30.00 1016 10 16 0.00 0.00
2:55 am 02:55 Partly Cloudy 67 19.5 66 18.9 96 96 Calm 30.00 1016 7 11 0.00 0.00
3:15 am 03:15 Cloudy 67 19.4 66 18.9 97 97 Calm 30.00 1016 7 11 0.00 0.00
3:35 am 03:35 Cloudy 68 20 67 19.5 97 97 Calm 30.00 1016 7 11 0.00 0.00
3:55 am 03:55 Cloudy 67 19.5 66 19 97 97 Calm 30.00 1016 7 11 0.00 0.00
4:15 am 04:15 Mostly Cloudy 67 19.7 67 19.2 97 97 Calm 30.00 1016 7 11 0.00 0.00
4:35 am 04:35 Mostly Cloudy 67 19.6 66 19.1 97 97 Calm 30.00 1016 7 11 0.00 0.00
4:55 am 04:55 Partly Cloudy with Mist and Fog 66 18.9 65 18.5 98 98 Calm 30.00 1016 5 8 0.00 0.00
5:15 am 05:15 Clear with Mist and Fog 65 18.6 65 18.3 98 98 Calm 30.00 1016 4 6 0.00 0.00
5:35 am 05:35 Mostly Cloudy with Mist and Fog 65 18.5 65 18.3 99 99 Calm 30.00 1016 1 2 0.00 0.00
5:55 am 05:55 Mostly Cloudy with Mist and Fog 64 17.9 64 17.8 99 99 Calm 30.00 1016 2 2 0.00 0.00
6:15 am 06:15 Mostly Cloudy with Mist and Fog 63 17.2 63 17.1 99 99 Calm 30.00 1016 1 1 0.00 0.00
6:35 am 06:35 Mostly Cloudy with Mist and Fog 62 16.8 62 16.7 99 99 Calm 30.03 1017 1 2 0.00 0.00
6:55 am 06:55 Mostly Cloudy with Fog 63 17.3 63 17.2 99 99 Calm 30.03 1017 0 0 0.00 0.00
7:15 am 07:15 Mostly Cloudy with Fog 62 16.6 62 16.5 99 99 Calm 30.03 1017 1 1 0.00 0.00
7:35 am 07:35 Mostly Cloudy with Fog 63 17.2 63 17.1 99 99 Calm 30.03 1017 0 0 0.00 0.00
7:55 am 07:55 Sunny with Mist and Fog 65 18.2 65 18.1 99 99 Calm 30.03 1017 4 6 0.00 0.00
8:15 am 08:15 Sunny with Mist and Fog 67 19.6 67 19.3 98 98 Calm 30.03 1017 4 6 0.00 0.00
8:35 am 08:35 Sunny with Mist and Fog 70 21.1 69 20.3 95 95 Calm 30.03 1017 5 8 0.00 0.00
8:55 am 08:55 Sunny 73 22.5 69 20.5 89 89 Calm 30.03 1017 7 11 0.00 0.00
9:15 am 09:15 Sunny 74 23.1 70 21.3 90 90 Calm 30.03 1017 7 11 0.00 0.00
9:35 am 09:35 Sunny 76 24.2 71 21.7 86 86 Calm 30.03 1017 7 11 0.00 0.00
9:55 am 09:55 Sunny 76 24.7 71 21.5 82 82 Calm 30.03 1017 10 16 0.00 0.00
10:15 am 10:15 Sunny 78 25.5 71 21.6 79 79 Calm 30.03 1017 10 16 0.00 0.00
10:35 am 10:35 Sunny 79 26.3 71 21.5 75 75 Calm 30.03 1017 10 16 0.00 0.00
10:55 am 10:55 Sunny 80 26.6 70 21.2 72 72 S 3 6 30.03 1017 10 16 0.00 0.00
11:15 am 11:15 Sunny 80 26.9 71 21.4 72 72 Calm 30.03 1017 10 16 0.00 0.00
11:35 am 11:35 Sunny 82 27.6 71 21.5 69 69 SSE 7 11 30.03 1017 10 16 0.00 0.00
11:55 am 11:55 Partly Cloudy 82 27.5 70 21 68 68 SSE 3 6 30.03 1017 10 16 0.00 0.00
12:15 pm 12:15 Sunny 82 28 70 21 66 66 SSW 6 9 30.03 1017 10 16 0.00 0.00
12:35 pm 12:35 Sunny 83 28.3 70 21.1 65 65 SSE 5 7 30.00 1016 10 16 0.00 0.00
12:55 pm 12:55 Sunny 83 28.5 70 21 64 64 S 8 13 30.00 1016 10 16 0.00 0.00
1:15 pm 13:15 Sunny 83 28.6 70 21.1 64 64 S 8 13 30.00 1016 10 16 0.00 0.00
1:35 pm 13:35 Partly Cloudy 83 28.5 69 20.8 63 63 S 6 9 30.00 1016 10 16 0.00 0.00
1:55 pm 13:55 Mostly Cloudy 83 28.5 70 20.9 63 63 SSW 9 15 30.00 1016 10 16 0.00 0.00
2:15 pm 14:15 Partly Cloudy 85 29.3 68 20.2 58 58 SSW 6 9 30.00 1016 10 16 0.00 0.00
2:35 pm 14:35 Partly Cloudy 85 29.6 70 21 60 60 S 5 7 30.00 1016 10 16 0.00 0.00
2:55 pm 14:55 Partly Cloudy 86 29.8 69 20.8 58 58 S 5 7 29.97 1015 10 16 0.00 0.00
3:15 pm 15:15 Sunny 86 30.1 69 20.4 56 56 S 10 17 29.97 1015 10 16 0.00 0.00
3:35 pm 15:35 Partly Cloudy 85 29.5 68 19.9 56 56 SSE 7 11 29.97 1015 10 16 0.00 0.00
3:55 pm 15:55 Partly Cloudy 87 30.4 68 19.8 53 53 S 8 13 29.91 1013 10 16 0.00 0.00
4:15 pm 16:15 Mostly Cloudy 84 29 68 20.1 59 59 S 6 9 29.94 1014 10 16 0.00 0.00
4:35 pm 16:35 Partly Cloudy 86 30.2 69 20.6 56 56 SSW 9 15 29.91 1013 10 16 0.00 0.00
4:55 pm 16:55 Partly Cloudy 86 29.9 70 21.2 60 60 SSW 10 17 29.94 1014 10 16 0.00 0.00
5:15 pm 17:15 Sunny 85 29.7 69 20.5 58 58 SSW 9 15 29.94 1014 10 16 0.00 0.00
5:35 pm 17:35 Sunny 85 29.6 70 21.1 60 60 SSW 8 13 29.94 1014 10 16 0.00 0.00
5:55 pm 17:55 Partly Cloudy 85 29.5 70 21.3 61 61 SSW 8 13 29.94 1014 10 16 0.00 0.00
6:15 pm 18:15 Partly Cloudy 85 29.5 69 20.8 60 60 SSW 8 13 29.94 1014 10 16 0.00 0.00
6:35 pm 18:35 Sunny 85 29.2 69 20.5 59 59 SW 8 13 29.94 1014 10 16 0.00 0.00
6:55 pm 18:55 Sunny 84 28.8 69 20.5 61 61 SSW 7 11 29.94 1014 10 16 0.00 0.00
7:15 pm 19:15 Sunny 84 28.7 70 21.2 64 64 SSW 7 11 29.94 1014 10 16 0.00 0.00
7:35 pm 19:35 Sunny 81 27.1 71 21.5 72 72 SSW 6 9 29.94 1014 10 16 0.00 0.00
7:55 pm 19:55 Sunny 81 27 71 21.5 72 72 SW 6 9 29.94 1014 10 16 0.00 0.00
8:15 pm 20:15 Sunny 80 26.7 70 21.2 72 72 SSW 6 9 29.94 1014 10 16 0.00 0.00
8:35 pm 20:35 Sunny 79 26.1 70 21.2 74 74 S 6 9 29.94 1014 10 16 0.00 0.00
8:55 pm 20:55 Clear 77 25 71 21.4 80 80 SSW 6 9 29.94 1014 10 16 0.00 0.00
9:15 pm 21:15 Mostly Cloudy 77 25 70 21.2 80 80 S 6 9 29.94 1014 10 16 0.00 0.00
9:35 pm 21:35 Mostly Cloudy 77 25 70 21.1 79 79 SSE 3 6 29.94 1014 10 16 0.00 0.00
9:55 pm 21:55 Mostly Cloudy 78 25.4 70 21.1 77 77 S 5 7 29.94 1014 10 16 0.00 0.00
10:15 pm 22:15 Mostly Cloudy 76 24.4 71 21.5 84 84 SSW 6 9 29.94 1014 10 16 0.00 0.00
10:35 pm 22:35 Clear 77 24.9 70 21.3 80 80 SSW 5 7 29.94 1014 10 16 0.00 0.00
10:55 pm 22:55 Cloudy 77 25.1 71 21.6 81 81 S 7 11 29.94 1014 10 16 0.00 0.00
11:15 pm 23:15 Cloudy 76 24.6 71 21.8 84 84 SSW 6 9 29.94 1014 10 16 0.00 0.00
11:35 pm 23:35 Mostly Cloudy 76 24.4 71 21.8 85 85 S 7 11 29.94 1014 10 16 0.00 0.00
11:55 pm 23:55 Partly Cloudy 76 24.5 71 21.8 85 85 S 8 13 29.91 1013 10 16 0.00 0.00

Powered by AerisWeather